Location: Ellerstadt
(49.4644°N, 8.2615°E)
Time: 09:47:55
(UTC+00:00)

Meteor 1-11 Rocket - Pass Details

Date: 03 March 2021
Orbit: 831 x 916 km, 81.2° (Epoch: 12 April)

Event Time Altitude Azimuth Distance (km) Brightness Sun altitude
Rises 19:24:27 0° 187° (S) 3,463 6.8 -21.9°
Reaches altitude 10° 19:26:54 10° 186° (S) 2,516 6.0 -22.3°
Maximum altitude 19:32:37 82° 100° (E) 874 3.6 -23.2°
Drops below altitude 10° 19:38:14 10° 14° (NNE) 2,480 6.2 -24.1°
Sets 19:40:38 0° 13° (NNE) 3,410 6.9 -24.4°
